Home > Weather > Patna > Past weeks

Flag for India Weather for the Past 2 Weeks in Patna, Bihar, India

Now
57 °F

Fog.


Feels Like: 57 °F
Forecast: 57 / 77 °F
Wind: No wind

Location: Patna Airport

Current Time: Feb 9, 2016 at 7:37:57 AM

Latest Report: Feb 9, 2016 at 6:30 AM


Visibility: 1 mi

Pressure: 29.98 "Hg

Humidity: 100%

Dew point: 57 °F

Location of PatnaLocation

Historic Weather in Patna — Graph

°F

Patna Temperature Yesterday

Maximum temperature yesterday: 77 °F (at 2:00 PM)
Minimum temperature yesterday: 63 °F (at 6:30 AM)
Average temperature yesterday: 71 °F

High & Low Weather Summary for the Past Weeks

 TemperatureHumidityPressure
High86 °F (Feb 2, 1:30 PM)100% (Jan 25, 6:30 AM)30.12 "Hg (Jan 25, 6:30 AM)
Low46 °F (Jan 25, 6:30 AM)31% (Feb 3, 1:00 PM)29.71 "Hg (Jan 27, 10:30 AM)
Average68 °F63%29.96 "Hg
* Reported Jan 25 6:30 AM — Feb 9 6:30 AM, Patna, Weather by CustomWeather, © 2016

Note: Actual official high and low records may vary slightly from our data, if they occured in-between our weather recording intervals... More about our weather records

Advertising

Patna Weather History for the Previous 24 Hours

 ConditionsComfort  
Time TempWeatherWind HumidityBarometerVisibility
6:30 AM
Tue, Feb 9
57 °FFog.No wind100%29.98 "Hg1 mi
5:30 AM59 °FFog.No wind88%29.95 "Hg1 mi
8:30 PM
Mon, Feb 8
64 °FFog.No wind88%29.92 "Hg1 mi
8:00 PM66 °FFog.No wind83%29.92 "Hg1 mi
7:30 PM68 °FFog.No wind73%29.92 "Hg1 mi
7:00 PM70 °FFog.No wind69%29.92 "Hg1 mi
6:30 PM72 °FFog.No wind69%29.92 "Hg1 mi
6:00 PM72 °FFog.No wind65%29.92 "Hg1 mi
5:30 PM73 °FLight rain. Broken clouds.7 mph65%29.89 "Hg1 mi
5:00 PM73 °FFog.5 mph61%29.86 "Hg1 mi
4:30 PM73 °FFog.12 mph65%29.86 "Hg1 mi
4:00 PM73 °FFog.5 mph61%29.86 "Hg1 mi
3:30 PM73 °FFog.7 mph61%29.86 "Hg1 mi
3:00 PM75 °FFog.7 mph57%29.86 "Hg1 mi
2:30 PM75 °FFog.8 mph57%29.89 "Hg1 mi
2:00 PM77 °FBroken clouds.7 mph54%29.89 "Hg1 mi
1:30 PM75 °FBroken clouds.7 mph57%29.89 "Hg1 mi
1:00 PM75 °FBroken clouds.8 mph57%29.89 "Hg1 mi
12:30 PM75 °FBroken clouds.7 mph57%29.92 "Hg1 mi
11:30 AM73 °FFog.6 mph61%29.95 "Hg1 mi
10:30 AM70 °FFog.9 mph69%29.98 "Hg1 mi
9:30 AM68 °FFog.2 mph73%29.98 "Hg1 mi
8:30 AM66 °FFog.7 mph73%29.95 "Hg1 mi
7:30 AM63 °FFog.5 mph77%29.98 "Hg1 mi
Weather by CustomWeather, © 2016

See weather overviewHow to use our weather pages